• In Hungary
  • List of Countries
  • For 7 days
  • Water Temperature
  • Satellite Maps
  • Weather Map
  • News
  • Weather Widgets
  • user-avatar
    Login

    Hourly Weather Ratnapura

    Today, 18 December, Monday

    Time Temperature Precipitation Wind Pressure Humidity
    00:00 +25°C° 0 mm 1 mps 756 mmHg 87%
    01:00 +25°C° 0 mm 1 mps 755 mmHg 87%
    02:00 +25°C° 0 mm 1 mps 755 mmHg 87%
    03:00 +25°C° 0 mm 2 mps 755 mmHg 87%
    04:00 +24°C° 0 mm 2 mps 755 mmHg 87%
    05:00 +24°C° 0 mm 2 mps 755 mmHg 87%
    06:00 +26°C° 0 mm 2 mps 755 mmHg 81%
    07:00 +27°C° 0 mm 2 mps 756 mmHg 76%
    08:00 +29°C° 0 mm 2 mps 756 mmHg 71%
    09:00 +30°C° 0 mm 2 mps 756 mmHg 64%
    10:00 +32°C° 0 mm 2 mps 756 mmHg 56%
    11:00 +35°C° 0 mm 2 mps 756 mmHg 49%
    12:00 +35°C° 0 mm 2 mps 755 mmHg 49%
    13:00 +35°C° 0 mm 2 mps 755 mmHg 48%
    14:00 +35°C° 0 mm 2 mps 754 mmHg 48%
    15:00 +34°C° 0 mm 2 mps 754 mmHg 56%
    16:00 +31°C° 0 mm 2 mps 754 mmHg 65%
    17:00 +29°C° 0 mm 2 mps 754 mmHg 73%
    18:00 +28°C° 0 mm 2 mps 755 mmHg 76%
    19:00 +28°C° 0 mm 2 mps 755 mmHg 80%
    20:00 +27°C° 0 mm 1 mps 756 mmHg 84%
    21:00 +26°C° 0 mm 1 mps 756 mmHg 84%
    22:00 +26°C° 0 mm 1 mps 756 mmHg 85%
    23:00 +26°C° 0 mm 1 mps 756 mmHg 85%

    Tomorrow, 19 December, Tuesday

    Time Temperature Precipitation Wind Pressure Humidity
    00:00 +25°C° 0 mm 2 mps 755 mmHg 85%
    01:00 +25°C° 0 mm 2 mps 755 mmHg 85%
    02:00 +25°C° 0 mm 2 mps 754 mmHg 85%
    03:00 +24°C° 0 mm 2 mps 754 mmHg 85%
    04:00 +24°C° 0 mm 2 mps 755 mmHg 85%
    05:00 +24°C° 0 mm 2 mps 755 mmHg 85%
    06:00 +26°C° 0 mm 2 mps 755 mmHg 80%
    07:00 +27°C° 0 mm 2 mps 755 mmHg 75%
    08:00 +29°C° 0 mm 2 mps 756 mmHg 70%
    09:00 +30°C° 0 mm 2 mps 756 mmHg 65%
    10:00 +32°C° 0 mm 2 mps 756 mmHg 60%
    11:00 +35°C° 0 mm 2 mps 756 mmHg 55%
    12:00 +35°C° 0.1 mm 2 mps 755 mmHg 56%
    13:00 +35°C° 0.1 mm 2 mps 754 mmHg 58%
    14:00 +34°C° 0.1 mm 2 mps 753 mmHg 60%
    15:00 +32°C° 0.4 mm 2 mps 753 mmHg 69%
    16:00 +30°C° 0.4 mm 2 mps 753 mmHg 77%
    17:00 +29°C° 0.4 mm 2 mps 753 mmHg 85%
    18:00 +28°C° 0.3 mm 2 mps 754 mmHg 88%
    19:00 +28°C° 0.3 mm 2 mps 754 mmHg 91%
    20:00 +27°C° 0.3 mm 1 mps 755 mmHg 93%
    21:00 +27°C° 0 mm 1 mps 755 mmHg 93%
    22:00 +26°C° 0 mm 1 mps 755 mmHg 94%
    23:00 +26°C° 0 mm 1 mps 755 mmHg 94%

    Day after tomorrow, 20 December, Wednesday

    Time Temperature Precipitation Wind Pressure Humidity
    00:00 +26°C° 0 mm 1 mps 755 mmHg 94%
    01:00 +26°C° 0 mm 1 mps 754 mmHg 94%
    02:00 +26°C° 0 mm 1 mps 754 mmHg 93%
    03:00 +26°C° 0 mm 1 mps 754 mmHg 93%
    04:00 +26°C° 0 mm 1 mps 754 mmHg 92%
    05:00 +26°C° 0 mm 1 mps 754 mmHg 92%
    06:00 +27°C° 0 mm 1 mps 755 mmHg 87%
    07:00 +28°C° 0 mm 1 mps 755 mmHg 82%
    08:00 +30°C° 0 mm 1 mps 756 mmHg 78%
    09:00 +31°C° 0.3 mm 1 mps 756 mmHg 74%
    10:00 +32°C° 0.3 mm 1 mps 756 mmHg 71%
    11:00 +33°C° 0.3 mm 1 mps 755 mmHg 67%
    12:00 +32°C° 1.7 mm 1 mps 755 mmHg 72%
    13:00 +31°C° 1.7 mm 1 mps 754 mmHg 76%
    14:00 +30°C° 1.7 mm 1 mps 753 mmHg 81%
    15:00 +29°C° 1.4 mm 1 mps 753 mmHg 84%
    16:00 +29°C° 1.4 mm 1 mps 753 mmHg 88%
    17:00 +28°C° 1.4 mm 1 mps 754 mmHg 91%
    18:00 +27°C° 0.2 mm 1 mps 754 mmHg 91%
    19:00 +27°C° 0.2 mm 1 mps 755 mmHg 91%
    20:00 +27°C° 0.2 mm 1 mps 755 mmHg 92%
    21:00 +27°C° 0.2 mm 1 mps 755 mmHg 92%
    22:00 +26°C° 0.2 mm 1 mps 755 mmHg 92%
    23:00 +26°C° 0.2 mm 1 mps 755 mmHg 92%

    21 December, Thursday

    Time Temperature Precipitation Wind Pressure Humidity
    00:00 +26°C° 0.2 mm 1 mps 755 mmHg 92%
    01:00 +26°C° 0.2 mm 1 mps 754 mmHg 92%
    02:00 +26°C° 0.2 mm 1 mps 754 mmHg 92%
    03:00 +26°C° 0 mm 1 mps 754 mmHg 92%
    04:00 +26°C° 0 mm 1 mps 754 mmHg 92%
    05:00 +26°C° 0 mm 1 mps 754 mmHg 92%
    06:00 +27°C° 0 mm 1 mps 755 mmHg 90%
    07:00 +28°C° 0 mm 1 mps 755 mmHg 87%
    08:00 +28°C° 0 mm 1 mps 756 mmHg 84%
    09:00 +30°C° 0.5 mm 1 mps 756 mmHg 79%
    10:00 +31°C° 0.5 mm 1 mps 756 mmHg 74%
    11:00 +32°C° 0.5 mm 1 mps 755 mmHg 69%
    12:00 +32°C° 1.4 mm 1 mps 755 mmHg 71%
    13:00 +31°C° 1.4 mm 1 mps 754 mmHg 73%
    14:00 +31°C° 1.4 mm 2 mps 753 mmHg 76%
    15:00 +30°C° 1.9 mm 1 mps 753 mmHg 81%
    16:00 +28°C° 1.9 mm 1 mps 753 mmHg 86%
    17:00 +27°C° 1.9 mm 1 mps 753 mmHg 91%
    18:00 +27°C° 0.7 mm 1 mps 754 mmHg 92%
    19:00 +27°C° 0.7 mm 1 mps 755 mmHg 92%
    20:00 +27°C° 0.7 mm 1 mps 755 mmHg 93%
    21:00 +26°C° 0.5 mm 1 mps 755 mmHg 93%
    22:00 +26°C° 0.5 mm 1 mps 755 mmHg 93%
    23:00 +26°C° 0.5 mm 1 mps 755 mmHg 93%

    22 December, Friday

    Time Temperature Precipitation Wind Pressure Humidity
    00:00 +26°C° 0.9 mm 1 mps 754 mmHg 93%
    01:00 +26°C° 0.9 mm 1 mps 754 mmHg 93%
    02:00 +26°C° 0.9 mm 1 mps 753 mmHg 93%
    03:00 +26°C° 0.9 mm 1 mps 753 mmHg 93%
    04:00 +26°C° 0.9 mm 1 mps 753 mmHg 93%
    05:00 +26°C° 0.9 mm 1 mps 754 mmHg 93%
    06:00 +26°C° 0.8 mm 1 mps 754 mmHg 92%
    07:00 +26°C° 0.8 mm 1 mps 755 mmHg 91%
    08:00 +27°C° 0.8 mm 1 mps 755 mmHg 91%
    09:00 +27°C° 1.5 mm 1 mps 755 mmHg 89%
    10:00 +27°C° 1.5 mm 1 mps 755 mmHg 87%
    11:00 +28°C° 1.5 mm 1 mps 755 mmHg 85%
    12:00 +28°C° 1 mm 1 mps 754 mmHg 84%
    13:00 +28°C° 1 mm 1 mps 754 mmHg 82%
    14:00 +29°C° 1 mm 1 mps 753 mmHg 81%
    15:00 +28°C° 0.5 mm 1 mps 753 mmHg 83%
    16:00 +28°C° 0.5 mm 1 mps 753 mmHg 85%
    17:00 +27°C° 0.5 mm 1 mps 753 mmHg 87%
    18:00 +27°C° 0.1 mm 1 mps 754 mmHg 88%
    19:00 +26°C° 0.1 mm 1 mps 754 mmHg 88%
    20:00 +26°C° 0.1 mm 1 mps 755 mmHg 89%
    21:00 +26°C° 0 mm 1 mps 755 mmHg 89%
    22:00 +26°C° 0 mm 1 mps 755 mmHg 89%
    23:00 +26°C° 0 mm 1 mps 754 mmHg 89%

    23 December, Saturday

    Time Temperature Precipitation Wind Pressure Humidity
    00:00 +25°C° 0 mm 1 mps 754 mmHg 89%
    01:00 +25°C° 0 mm 1 mps 753 mmHg 90%
    02:00 +25°C° 0 mm 1 mps 753 mmHg 90%
    03:00 +25°C° 0 mm 1 mps 753 mmHg 90%
    04:00 +25°C° 0 mm 1 mps 753 mmHg 90%
    05:00 +25°C° 0 mm 1 mps 753 mmHg 90%
    06:00 +26°C° 0 mm 1 mps 753 mmHg 86%
    07:00 +26°C° 0 mm 0 mps 754 mmHg 81%
    08:00 +27°C° 0 mm 0 mps 754 mmHg 76%
    09:00 +31°C° 0 mm 1 mps 754 mmHg 70%
    10:00 +32°C° 0 mm 1 mps 754 mmHg 64%
    11:00 +34°C° 0 mm 1 mps 753 mmHg 58%
    12:00 +33°C° 0.8 mm 1 mps 753 mmHg 62%
    13:00 +32°C° 0.8 mm 1 mps 752 mmHg 67%
    14:00 +32°C° 0.8 mm 1 mps 751 mmHg 71%
    15:00 +31°C° 1.9 mm 1 mps 751 mmHg 77%
    16:00 +30°C° 1.9 mm 1 mps 751 mmHg 82%
    17:00 +29°C° 1.9 mm 1 mps 752 mmHg 88%
    18:00 +28°C° 1.6 mm 1 mps 752 mmHg 89%
    19:00 +26°C° 1.6 mm 0 mps 753 mmHg 90%
    20:00 +25°C° 1.6 mm 0 mps 753 mmHg 92%
    21:00 +25°C° 0.3 mm 0 mps 753 mmHg 92%
    22:00 +25°C° 0.3 mm 0 mps 753 mmHg 92%
    23:00 +27°C° 0.3 mm 1 mps 753 mmHg 93%
    Show more